START_TIME,STEP,MOV.,M6,t_acc.,M7,t_acc.,M19,t_acc.,H36,t_acc.
1979-07-19 23:00:26.920 ,1,0,0.,12.0,0.,12.0,0.,12.0,0.,12.0
1979-07-19 23:00:38.920 ,1,0,0.,12.0,0.,12.0,0.,12.0,0.,12.0
1979-07-19 23:01:14.920 ,2,0,0.,12.0,0.,12.0,0.,12.0,0.,12.0
1979-07-19 23:01:26.920 ,2,0,0.,12.0,0.,12.0,0.,12.0,0.,12.0
1979-07-19 23:01:38.920 ,3,1,0.,12.0,0.,12.0,0.,12.0,0.,12.0
1979-07-19 23:01:50.920 ,3,1,0.,12.0,0.,12.0,0.,12.0,0.,12.0
1979-07-19 23:02:02.920 ,3,0,0.,12.0,0.,12.0,0.,12.0,0.,12.0
1979-07-19 23:02:14.920 ,3,0,0.,12.0,0.,12.0,0.,12.0,0.,12.0
1979-07-19 23:02:26.920 ,4,1,0.,12.0,0.,12.0,0.,12.0,0.,12.0
1979-07-19 23:02:38.920 ,4,1,0.,12.0,0.,12.0,0.,12.0,1.,12.0
1979-07-19 23:02:50.920 ,4,0,0.,12.0,0.,12.0,0.,12.0,0.,12.0
1979-07-19 23:03:02.920 ,4,0,1.,12.0,0.,12.0,0.,12.0,0.,12.0
1979-07-19 23:03:14.920 ,5,1,0.,12.0,0.,12.0,0.,12.0,0.,12.0
1979-07-19 23:03:26.920 ,5,1,0.,12.0,0.,12.0,0.,12.0,0.,12.0
1979-07-19 23:03:38.920 ,5,0,0.,12.0,0.,12.0,0.,12.0,0.,12.0
1979-07-19 23:03:50.920 ,5,0,0.,12.0,0.,12.0,0.,12.0,0.,12.0
1979-07-19 23:04:02.920 ,6,1,0.,12.0,0.,12.0,0.,12.0,0.,12.0
1979-07-19 23:04:14.920 ,6,1,0.,12.0,0.,12.0,0.,12.0,0.,12.0
1979-07-19 23:04:26.920 ,6,0,0.,12.0,0.,12.0,0.,12.0,0.,12.0
1979-07-19 23:04:38.920 ,6,0,0.,12.0,0.,12.0,0.,12.0,0.,12.0
1979-07-19 23:04:50.920 ,7,1,0.,12.0,0.,12.0,0.,12.0,0.,12.0
1979-07-19 23:05:02.920 ,7,1,0.,12.0,0.,12.0,0.,12.0,0.,12.0
1979-07-19 23:05:14.920 ,7,0,0.,12.0,0.,12.0,0.,12.0,0.,12.0
1979-07-19 23:05:26.920 ,7,0,0.,12.0,0.,12.0,0.,12.0,0.,12.0
1979-07-19 23:05:38.920 ,7,1,0.,12.0,0.,12.0,0.,12.0,0.,12.0
1979-07-19 23:05:50.920 ,7,1,0.,12.0,0.,12.0,0.,12.0,0.,12.0
1979-07-19 23:06:02.920 ,7,0,0.,12.0,0.,12.0,0.,12.0,0.,12.0
1979-07-19 23:06:14.920 ,7,0,0.,12.0,0.,12.0,0.,12.0,0.,12.0
1979-07-19 23:06:26.920 ,6,1,0.,12.0,0.,12.0,0.,12.0,0.,12.0
1979-07-19 23:06:38.920 ,6,1,0.,12.0,0.,12.0,0.,12.0,0.,12.0
1979-07-19 23:06:50.920 ,6,0,0.,12.0,0.,12.0,0.,12.0,0.,12.0
1979-07-19 23:07:02.920 ,6,0,0.,12.0,0.,12.0,0.,12.0,0.,12.0
1979-07-19 23:07:14.920 ,5,1,0.,12.0,0.,12.0,0.,12.0,0.,12.0
1979-07-19 23:07:26.920 ,5,1,0.,12.0,0.,12.0,0.,12.0,0.,12.0
1979-07-19 23:07:38.920 ,5,0,0.,12.0,0.,12.0,0.,12.0,0.,12.0
1979-07-19 23:07:50.920 ,5,0,0.,12.0,0.,12.0,0.,12.0,0.,12.0
1979-07-19 23:08:02.920 ,4,1,0.,12.0,0.,12.0,0.,12.0,0.,12.0
1979-07-19 23:08:14.920 ,4,1,0.,12.0,0.,12.0,0.,12.0,0.,12.0
1979-07-19 23:08:26.920 ,4,0,0.,12.0,0.,12.0,0.,12.0,0.,12.0
1979-07-19 23:08:38.920 ,4,0,0.,12.0,0.,12.0,0.,12.0,0.,12.0
1979-07-19 23:08:50.910 ,3,1,0.,12.0,0.,12.0,0.,12.0,0.,12.0
1979-07-19 23:09:02.920 ,3,1,0.,12.0,0.,12.0,0.,12.0,1.,12.0
1979-07-19 23:09:14.910 ,3,0,0.,12.0,0.,12.0,0.,12.0,1.,12.0
1979-07-19 23:09:26.920 ,3,0,0.,12.0,0.,12.0,0.,12.0,0.,12.0
1979-07-19 23:09:38.910 ,2,1,0.,12.0,0.,12.0,0.,12.0,0.,12.0
1979-07-19 23:09:50.920 ,2,1,0.,12.0,0.,12.0,0.,12.0,0.,12.0
1979-07-19 23:10:02.910 ,2,0,0.,12.0,0.,12.0,0.,12.0,0.,12.0
1979-07-19 23:10:14.920 ,2,0,0.,12.0,0.,12.0,0.,12.0,0.,12.0
1979-07-19 23:10:26.910 ,1,1,0.,12.0,0.,12.0,0.,12.0,0.,12.0
1979-07-19 23:10:38.920 ,1,1,1.,12.0,0.,12.0,0.,12.0,0.,12.0
1979-07-19 23:10:50.910 ,1,0,0.,12.0,0.,12.0,0.,12.0,0.,12.0
1979-07-19 23:11:02.920 ,1,0,1.,12.0,0.,12.0,0.,12.0,0.,12.0
1979-07-19 23:11:14.910 ,0,1,0.,12.0,0.,12.0,0.,12.0,0.,12.0
1979-07-19 23:11:26.920 ,0,1,0.,12.0,0.,12.0,0.,12.0,0.,12.0
1979-07-19 23:11:38.910 ,0,0,0.,12.0,0.,12.0,0.,12.0,0.,12.0
1979-07-19 23:11:50.920 ,0,0,0.,12.0,0.,12.0,0.,12.0,0.,12.0
1979-07-19 23:12:02.910 ,0,1,0.,12.0,0.,12.0,0.,12.0,0.,12.0
1979-07-19 23:12:14.920 ,0,1,0.,12.0,0.,12.0,0.,12.0,0.,12.0
1979-07-19 23:12:26.910 ,0,0,0.,12.0,0.,12.0,0.,12.0,0.,12.0
1979-07-19 23:12:38.920 ,0,0,0.,12.0,0.,12.0,0.,12.0,0.,12.0
1979-07-19 23:12:50.910 ,1,1,0.,12.0,0.,12.0,0.,12.0,0.,12.0
1979-07-19 23:13:02.920 ,1,1,0.,12.0,0.,12.0,0.,12.0,0.,12.0
1979-07-19 23:13:14.910 ,1,0,0.,12.0,0.,12.0,0.,12.0,0.,12.0
1979-07-19 23:13:26.920 ,1,0,0.,12.0,0.,12.0,0.,12.0,0.,12.0
1979-07-19 23:13:38.910 ,2,1,0.,12.0,0.,12.0,0.,12.0,0.,12.0
1979-07-19 23:13:50.920 ,2,1,0.,12.0,0.,12.0,0.,12.0,0.,12.0
1979-07-19 23:14:02.910 ,2,0,0.,12.0,0.,12.0,0.,12.0,0.,12.0
1979-07-19 23:14:14.920 ,2,0,0.,12.0,0.,12.0,0.,12.0,0.,12.0
1979-07-19 23:14:26.910 ,3,1,0.,12.0,0.,12.0,0.,12.0,0.,12.0
1979-07-19 23:14:38.920 ,3,1,0.,12.0,0.,12.0,0.,12.0,0.,12.0
1979-07-19 23:14:50.910 ,3,0,0.,12.0,0.,12.0,0.,12.0,0.,12.0
1979-07-19 23:15:02.920 ,3,0,0.,12.0,0.,12.0,0.,12.0,0.,12.0
1979-07-19 23:15:14.910 ,4,1,0.,12.0,0.,12.0,0.,12.0,0.,12.0
1979-07-19 23:15:26.920 ,4,1,0.,12.0,0.,12.0,0.,12.0,0.,12.0
1979-07-19 23:15:38.910 ,4,0,0.,12.0,0.,12.0,0.,12.0,0.,12.0
1979-07-19 23:15:50.920 ,4,0,0.,12.0,0.,12.0,0.,12.0,0.,12.0
1979-07-19 23:16:02.910 ,5,1,0.,12.0,0.,12.0,0.,12.0,0.,12.0
1979-07-19 23:16:14.920 ,5,1,0.,12.0,0.,12.0,0.,12.0,0.,12.0
1979-07-19 23:16:26.910 ,5,0,0.,12.0,0.,12.0,0.,12.0,0.,12.0
1979-07-19 23:16:38.920 ,5,0,0.,12.0,0.,12.0,0.,12.0,0.,12.0
1979-07-19 23:16:50.910 ,6,1,0.,12.0,0.,12.0,0.,12.0,0.,12.0
1979-07-19 23:17:02.920 ,6,1,0.,12.0,0.,12.0,0.,12.0,0.,12.0
1979-07-19 23:17:14.910 ,6,0,0.,12.0,0.,12.0,0.,12.0,0.,12.0
1979-07-19 23:17:26.910 ,6,0,0.,12.0,0.,12.0,0.,12.0,0.,12.0
1979-07-19 23:17:38.910 ,7,1,0.,12.0,0.,12.0,0.,12.0,0.,12.0
1979-07-19 23:17:50.910 ,7,1,0.,12.0,0.,12.0,0.,12.0,0.,12.0
1979-07-19 23:18:02.910 ,7,0,0.,12.0,0.,12.0,0.,12.0,0.,12.0
1979-07-19 23:18:14.910 ,7,0,0.,12.0,0.,12.0,0.,12.0,0.,12.0
1979-07-19 23:18:26.910 ,7,1,0.,12.0,0.,12.0,0.,12.0,0.,12.0
1979-07-19 23:18:38.910 ,7,1,0.,12.0,0.,12.0,0.,12.0,0.,12.0
1979-07-19 23:18:50.910 ,7,0,0.,12.0,0.,12.0,0.,12.0,0.,12.0
1979-07-19 23:19:02.910 ,7,0,0.,12.0,0.,12.0,0.,12.0,0.,12.0
1979-07-19 23:19:14.910 ,6,1,0.,12.0,0.,12.0,0.,12.0,0.,12.0
1979-07-19 23:19:26.910 ,6,1,0.,12.0,0.,12.0,0.,12.0,0.,12.0
1979-07-19 23:19:38.910 ,6,0,0.,12.0,0.,12.0,0.,12.0,0.,12.0
1979-07-19 23:19:50.910 ,6,0,0.,12.0,0.,12.0,0.,12.0,0.,12.0
1979-07-19 23:20:02.910 ,5,1,1.,12.0,0.,12.0,0.,12.0,0.,12.0
1979-07-19 23:20:14.910 ,5,1,0.,12.0,0.,12.0,0.,12.0,0.,12.0
1979-07-19 23:20:26.910 ,5,0,0.,12.0,0.,12.0,0.,12.0,0.,12.0
1979-07-19 23:20:38.910 ,5,0,0.,12.0,0.,12.0,0.,12.0,0.,12.0
1979-07-19 23:20:50.910 ,4,1,0.,12.0,0.,12.0,0.,12.0,0.,12.0
1979-07-19 23:21:02.910 ,4,1,2.,12.0,0.,12.0,0.,12.0,0.,12.0
1979-07-19 23:21:14.910 ,4,0,0.,12.0,0.,12.0,0.,12.0,0.,12.0
1979-07-19 23:21:26.910 ,4,0,0.,12.0,0.,12.0,0.,12.0,0.,12.0
1979-07-19 23:21:38.910 ,3,1,0.,12.0,0.,12.0,0.,12.0,0.,12.0
1979-07-19 23:21:50.910 ,3,1,0.,12.0,0.,12.0,0.,12.0,0.,12.0
1979-07-19 23:22:02.910 ,3,0,0.,12.0,0.,12.0,0.,12.0,0.,12.0
1979-07-19 23:22:14.910 ,3,0,0.,12.0,0.,12.0,0.,12.0,0.,12.0
1979-07-19 23:22:26.910 ,2,1,0.,12.0,0.,12.0,0.,12.0,0.,12.0
1979-07-19 23:22:38.910 ,2,1,0.,12.0,0.,12.0,0.,12.0,0.,12.0
1979-07-19 23:22:50.910 ,2,0,0.,12.0,0.,12.0,0.,12.0,0.,12.0
1979-07-19 23:23:02.910 ,2,0,0.,12.0,0.,12.0,0.,12.0,0.,12.0
1979-07-19 23:23:14.910 ,1,1,0.,12.0,0.,12.0,0.,12.0,0.,12.0
1979-07-19 23:23:26.910 ,1,1,0.,12.0,0.,12.0,0.,12.0,0.,12.0
1979-07-19 23:23:38.910 ,1,0,0.,12.0,0.,12.0,0.,12.0,0.,12.0
1979-07-19 23:23:50.910 ,1,0,0.,12.0,0.,12.0,0.,12.0,0.,12.0
1979-07-19 23:24:02.910 ,0,1,0.,12.0,0.,12.0,0.,12.0,0.,12.0
1979-07-19 23:24:14.910 ,0,1,0.,12.0,0.,12.0,0.,12.0,0.,12.0
1979-07-19 23:24:26.910 ,0,0,0.,12.0,0.,12.0,0.,12.0,0.,12.0
1979-07-19 23:24:38.910 ,0,0,0.,12.0,0.,12.0,0.,12.0,0.,12.0
1979-07-19 23:24:50.910 ,0,1,0.,12.0,0.,12.0,0.,12.0,0.,12.0
1979-07-19 23:25:02.910 ,0,1,0.,12.0,0.,12.0,0.,12.0,0.,12.0
1979-07-19 23:25:14.910 ,0,0,0.,12.0,0.,12.0,0.,12.0,0.,12.0
1979-07-19 23:25:26.910 ,0,0,0.,12.0,0.,12.0,0.,12.0,0.,12.0
1979-07-19 23:25:38.910 ,1,1,0.,12.0,0.,12.0,0.,12.0,0.,12.0
1979-07-19 23:25:50.910 ,1,1,0.,12.0,0.,12.0,0.,12.0,0.,12.0
1979-07-19 23:26:02.910 ,1,0,0.,12.0,0.,12.0,0.,12.0,0.,12.0
1979-07-19 23:26:14.910 ,1,0,0.,12.0,0.,12.0,0.,12.0,0.,12.0
1979-07-19 23:26:26.910 ,2,1,0.,12.0,0.,12.0,0.,12.0,0.,12.0
1979-07-19 23:26:38.910 ,2,1,0.,12.0,0.,12.0,0.,12.0,0.,12.0
1979-07-19 23:26:50.910 ,2,0,0.,12.0,0.,12.0,0.,12.0,0.,12.0
1979-07-19 23:27:02.910 ,2,0,0.,12.0,0.,12.0,0.,12.0,0.,12.0
1979-07-19 23:27:14.910 ,3,1,0.,12.0,0.,12.0,0.,12.0,0.,12.0
1979-07-19 23:27:26.910 ,3,1,0.,12.0,0.,12.0,0.,12.0,1.,12.0
1979-07-19 23:27:38.910 ,3,0,1.,12.0,0.,12.0,0.,12.0,0.,12.0
1979-07-19 23:27:50.910 ,3,0,0.,12.0,0.,12.0,0.,12.0,0.,12.0
1979-07-19 23:28:02.910 ,4,1,0.,12.0,0.,12.0,0.,12.0,0.,12.0
1979-07-19 23:28:14.910 ,4,1,1.,12.0,0.,12.0,0.,12.0,0.,12.0
1979-07-19 23:28:26.910 ,4,0,0.,12.0,0.,12.0,0.,12.0,1.,12.0
1979-07-19 23:28:38.910 ,4,0,0.,12.0,0.,12.0,0.,12.0,0.,12.0
1979-07-19 23:28:50.910 ,5,1,0.,12.0,0.,12.0,0.,12.0,0.,12.0
1979-07-19 23:29:02.910 ,5,1,0.,12.0,0.,12.0,0.,12.0,0.,12.0
1979-07-19 23:29:14.910 ,5,0,0.,12.0,0.,12.0,0.,12.0,0.,12.0
1979-07-19 23:29:26.910 ,5,0,0.,12.0,0.,12.0,0.,12.0,0.,12.0
1979-07-19 23:29:38.910 ,6,1,0.,12.0,0.,12.0,0.,12.0,0.,12.0
1979-07-19 23:29:50.910 ,6,1,0.,12.0,0.,12.0,0.,12.0,0.,12.0
1979-07-19 23:30:02.910 ,6,0,0.,12.0,0.,12.0,0.,12.0,0.,12.0
1979-07-19 23:30:14.910 ,6,0,0.,12.0,0.,12.0,0.,12.0,0.,12.0
1979-07-19 23:30:26.910 ,7,0,0.,12.0,0.,12.0,0.,12.0,0.,12.0
1979-07-19 23:30:38.910 ,7,0,0.,12.0,0.,12.0,0.,12.0,0.,12.0
1979-07-19 23:30:50.910 ,7,0,0.,12.0,0.,12.0,0.,12.0,0.,12.0
1979-07-19 23:31:02.910 ,7,0,0.,12.0,0.,12.0,0.,12.0,0.,12.0
1979-07-19 23:31:14.910 ,4,1,0.,12.0,0.,12.0,0.,12.0,0.,12.0
1979-07-19 23:31:26.910 ,4,1,0.,12.0,0.,12.0,0.,12.0,0.,12.0
1979-07-19 23:31:38.910 ,0,1,0.,12.0,0.,12.0,0.,12.0,0.,12.0
1979-07-19 23:31:50.910 ,0,1,0.,12.0,0.,12.0,0.,12.0,0.,12.0
1979-07-19 23:32:02.910 ,3,1,0.,12.0,0.,12.0,0.,12.0,0.,12.0
1979-07-19 23:32:14.910 ,3,1,0.,12.0,0.,12.0,0.,12.0,0.,12.0
1979-07-19 23:32:26.910 ,7,1,0.,12.0,0.,12.0,0.,12.0,0.,12.0
1979-07-19 23:32:38.910 ,7,1,0.,12.0,0.,12.0,0.,12.0,0.,12.0
1979-07-19 23:32:50.910 ,4,1,0.,12.0,0.,12.0,0.,12.0,0.,12.0
1979-07-19 23:33:02.910 ,4,1,0.,12.0,0.,12.0,0.,12.0,0.,12.0
1979-07-19 23:33:14.910 ,0,1,1.,12.0,0.,12.0,0.,12.0,0.,12.0
1979-07-19 23:33:26.910 ,0,1,0.,12.0,0.,12.0,0.,12.0,0.,12.0
1979-07-19 23:33:38.910 ,3,1,0.,12.0,0.,12.0,0.,12.0,0.,12.0
1979-07-19 23:33:50.910 ,3,1,0.,12.0,0.,12.0,0.,12.0,0.,12.0
1979-07-19 23:34:02.910 ,7,1,0.,12.0,0.,12.0,0.,12.0,1.,12.0
1979-07-19 23:34:14.910 ,7,1,0.,12.0,0.,12.0,0.,12.0,0.,12.0
1979-07-19 23:34:26.910 ,4,1,0.,12.0,0.,12.0,0.,12.0,0.,12.0
1979-07-19 23:34:38.910 ,4,1,0.,12.0,0.,12.0,0.,12.0,0.,12.0
1979-07-19 23:34:50.910 ,0,1,0.,12.0,0.,12.0,0.,12.0,0.,12.0
1979-07-19 23:35:02.910 ,0,1,0.,12.0,0.,12.0,0.,12.0,0.,12.0
1979-07-19 23:35:14.910 ,3,1,0.,12.0,0.,12.0,0.,12.0,0.,12.0
1979-07-19 23:35:26.910 ,3,1,0.,12.0,0.,12.0,0.,12.0,0.,12.0
1979-07-19 23:35:38.910 ,7,1,0.,12.0,0.,12.0,0.,12.0,0.,12.0
1979-07-19 23:35:50.910 ,7,1,0.,12.0,0.,12.0,0.,12.0,0.,12.0
1979-07-19 23:36:02.910 ,4,1,0.,12.0,0.,12.0,0.,12.0,0.,12.0
1979-07-19 23:36:14.910 ,4,1,0.,12.0,0.,12.0,0.,12.0,0.,12.0
1979-07-19 23:36:26.910 ,0,1,0.,12.0,0.,12.0,0.,12.0,0.,12.0
1979-07-19 23:36:38.910 ,0,1,0.,12.0,0.,12.0,0.,12.0,0.,12.0
1979-07-19 23:36:50.910 ,3,1,0.,12.0,0.,12.0,0.,12.0,0.,12.0
1979-07-19 23:37:02.910 ,3,1,0.,12.0,0.,12.0,0.,12.0,0.,12.0
1979-07-19 23:37:14.910 ,7,1,0.,12.0,0.,12.0,0.,12.0,0.,12.0
1979-07-19 23:37:26.910 ,7,1,0.,12.0,0.,12.0,0.,12.0,0.,12.0
1979-07-19 23:37:38.910 ,4,1,0.,12.0,0.,12.0,0.,12.0,0.,12.0
1979-07-19 23:37:50.910 ,4,1,0.,12.0,0.,12.0,0.,12.0,0.,12.0
1979-07-19 23:38:02.910 ,0,1,0.,12.0,0.,12.0,0.,12.0,0.,12.0
1979-07-19 23:38:14.910 ,0,1,0.,12.0,0.,12.0,0.,12.0,0.,12.0
1979-07-19 23:38:26.910 ,3,1,0.,12.0,0.,12.0,0.,12.0,0.,12.0
1979-07-19 23:38:38.910 ,3,1,1.,12.0,0.,12.0,0.,12.0,0.,12.0
1979-07-19 23:38:50.910 ,7,1,0.,12.0,0.,12.0,0.,12.0,0.,12.0
1979-07-19 23:39:02.910 ,7,1,0.,12.0,0.,12.0,0.,12.0,0.,12.0
1979-07-19 23:39:14.910 ,4,1,0.,12.0,0.,12.0,0.,12.0,0.,12.0
1979-07-19 23:39:26.910 ,4,1,0.,12.0,0.,12.0,0.,12.0,0.,12.0
1979-07-19 23:39:38.910 ,0,1,0.,12.0,0.,12.0,0.,12.0,0.,12.0
1979-07-19 23:39:50.910 ,0,1,0.,12.0,0.,12.0,0.,12.0,0.,12.0
1979-07-19 23:40:02.910 ,3,1,0.,12.0,0.,12.0,0.,12.0,0.,12.0
1979-07-19 23:40:14.910 ,3,1,0.,12.0,0.,12.0,0.,12.0,0.,12.0
1979-07-19 23:40:26.910 ,7,1,0.,12.0,0.,12.0,0.,12.0,0.,12.0
1979-07-19 23:40:38.910 ,7,1,0.,12.0,0.,12.0,0.,12.0,0.,12.0
1979-07-19 23:40:50.910 ,4,1,0.,12.0,0.,12.0,0.,12.0,0.,12.0
1979-07-19 23:41:02.910 ,4,1,0.,12.0,0.,12.0,0.,12.0,0.,12.0
1979-07-19 23:41:14.910 ,0,1,1.,12.0,0.,12.0,0.,12.0,0.,12.0
1979-07-19 23:41:26.910 ,0,1,0.,12.0,0.,12.0,0.,12.0,0.,12.0
1979-07-19 23:41:38.910 ,0,0,0.,12.0,0.,12.0,0.,12.0,0.,12.0
1979-07-19 23:41:50.910 ,0,0,0.,12.0,0.,12.0,0.,12.0,0.,12.0
1979-07-19 23:42:02.910 ,0,0,0.,12.0,0.,12.0,0.,12.0,0.,12.0
1979-07-19 23:42:14.910 ,0,0,0.,12.0,0.,12.0,0.,12.0,0.,12.0
1979-07-19 23:42:26.910 ,5,1,0.,12.0,0.,12.0,0.,12.0,0.,12.0
1979-07-19 23:42:38.910 ,5,1,1.,12.0,0.,12.0,0.,12.0,0.,12.0
1979-07-19 23:42:50.910 ,5,0,0.,12.0,0.,12.0,0.,12.0,0.,12.0
1979-07-19 23:43:02.910 ,5,0,0.,12.0,0.,12.0,0.,12.0,0.,12.0
1979-07-19 23:43:14.910 ,4,1,0.,12.0,0.,12.0,0.,12.0,0.,12.0
1979-07-19 23:43:26.910 ,4,1,0.,12.0,0.,12.0,0.,12.0,1.,12.0
1979-07-19 23:43:38.910 ,4,0,0.,12.0,0.,12.0,0.,12.0,0.,12.0
1979-07-19 23:43:50.910 ,4,0,0.,12.0,0.,12.0,0.,12.0,0.,12.0
1979-07-19 23:44:02.910 ,3,1,0.,12.0,0.,12.0,0.,12.0,0.,12.0
1979-07-19 23:44:14.910 ,3,1,0.,12.0,0.,12.0,0.,12.0,1.,12.0
1979-07-19 23:44:26.910 ,3,0,0.,12.0,0.,12.0,0.,12.0,0.,12.0
1979-07-19 23:44:38.910 ,3,0,0.,12.0,0.,12.0,0.,12.0,0.,12.0
1979-07-19 23:44:50.910 ,2,1,0.,12.0,0.,12.0,0.,12.0,1.,12.0
1979-07-19 23:45:02.910 ,2,1,0.,12.0,0.,12.0,0.,12.0,0.,12.0
1979-07-19 23:45:14.910 ,2,0,0.,12.0,0.,12.0,0.,12.0,0.,12.0
1979-07-19 23:45:26.910 ,2,0,0.,12.0,0.,12.0,0.,12.0,0.,12.0
1979-07-19 23:45:38.910 ,1,1,0.,12.0,0.,12.0,0.,12.0,0.,12.0
1979-07-19 23:45:50.910 ,1,1,0.,12.0,0.,12.0,0.,12.0,0.,12.0
1979-07-19 23:46:02.910 ,1,0,0.,12.0,0.,12.0,0.,12.0,0.,12.0
1979-07-19 23:46:14.910 ,1,0,0.,12.0,0.,12.0,0.,12.0,0.,12.0
1979-07-19 23:46:26.910 ,0,1,0.,12.0,0.,12.0,0.,12.0,0.,12.0
1979-07-19 23:46:38.910 ,0,1,0.,12.0,1.,12.0,0.,12.0,0.,12.0
1979-07-19 23:46:50.910 ,0,0,0.,12.0,0.,12.0,0.,12.0,0.,12.0
1979-07-19 23:47:02.910 ,0,0,0.,12.0,0.,12.0,0.,12.0,0.,12.0
1979-07-19 23:47:14.910 ,0,1,0.,12.0,0.,12.0,0.,12.0,0.,12.0
1979-07-19 23:47:26.910 ,0,1,0.,12.0,0.,12.0,0.,12.0,0.,12.0
1979-07-19 23:47:38.910 ,0,0,0.,12.0,0.,12.0,0.,12.0,0.,12.0
1979-07-19 23:47:50.910 ,0,0,0.,12.0,0.,12.0,0.,12.0,0.,12.0
1979-07-19 23:48:02.910 ,1,1,0.,12.0,0.,12.0,0.,12.0,0.,12.0
1979-07-19 23:48:14.910 ,1,1,0.,12.0,0.,12.0,0.,12.0,0.,12.0
1979-07-19 23:48:26.910 ,1,0,0.,12.0,0.,12.0,0.,12.0,0.,12.0
1979-07-19 23:48:38.910 ,1,0,0.,12.0,0.,12.0,0.,12.0,0.,12.0
1979-07-19 23:48:50.910 ,2,1,0.,12.0,0.,12.0,0.,12.0,0.,12.0
1979-07-19 23:49:02.910 ,2,1,0.,12.0,0.,12.0,0.,12.0,0.,12.0
1979-07-19 23:49:14.910 ,2,0,1.,12.0,0.,12.0,0.,12.0,0.,12.0
1979-07-19 23:49:26.910 ,2,0,0.,12.0,0.,12.0,0.,12.0,0.,12.0
1979-07-19 23:49:38.910 ,3,1,0.,12.0,0.,12.0,0.,12.0,1.,12.0
1979-07-19 23:49:50.910 ,3,1,0.,12.0,0.,12.0,0.,12.0,0.,12.0
1979-07-19 23:50:02.910 ,3,0,0.,12.0,0.,12.0,0.,12.0,0.,12.0
1979-07-19 23:50:14.910 ,3,0,0.,12.0,0.,12.0,0.,12.0,0.,12.0
1979-07-19 23:50:26.910 ,4,1,0.,12.0,0.,12.0,0.,12.0,0.,12.0
1979-07-19 23:50:38.910 ,4,1,0.,12.0,0.,12.0,0.,12.0,1.,12.0
1979-07-19 23:50:50.910 ,4,0,0.,12.0,0.,12.0,0.,12.0,0.,12.0
1979-07-19 23:51:02.910 ,4,0,0.,12.0,0.,12.0,0.,12.0,0.,12.0
1979-07-19 23:51:14.910 ,5,1,0.,12.0,0.,12.0,0.,12.0,0.,12.0
1979-07-19 23:51:26.910 ,5,1,0.,12.0,0.,12.0,0.,12.0,0.,12.0
1979-07-19 23:51:38.910 ,5,0,1.,12.0,0.,12.0,0.,12.0,0.,12.0
1979-07-19 23:51:50.910 ,5,0,0.,12.0,0.,12.0,0.,12.0,0.,12.0
1979-07-19 23:52:02.910 ,6,1,0.,12.0,0.,12.0,0.,12.0,0.,12.0
1979-07-19 23:52:14.910 ,6,1,0.,12.0,0.,12.0,0.,12.0,0.,12.0
1979-07-19 23:52:26.910 ,6,0,0.,12.0,0.,12.0,0.,12.0,0.,12.0
1979-07-19 23:52:38.910 ,6,0,0.,12.0,0.,12.0,0.,12.0,0.,12.0
1979-07-19 23:52:50.910 ,7,1,0.,12.0,0.,12.0,0.,12.0,0.,12.0
1979-07-19 23:53:02.910 ,7,1,0.,12.0,0.,12.0,0.,12.0,0.,12.0
1979-07-19 23:53:14.910 ,7,0,0.,12.0,0.,12.0,0.,12.0,0.,12.0
1979-07-19 23:53:26.910 ,7,0,0.,12.0,0.,12.0,0.,12.0,0.,12.0
1979-07-19 23:53:38.910 ,7,1,0.,12.0,0.,12.0,0.,12.0,0.,12.0
1979-07-19 23:53:50.910 ,7,1,0.,12.0,0.,12.0,0.,12.0,0.,12.0
1979-07-19 23:54:02.910 ,7,0,0.,12.0,0.,12.0,0.,12.0,0.,12.0
1979-07-19 23:54:14.910 ,7,0,0.,12.0,0.,12.0,0.,12.0,0.,12.0
1979-07-19 23:54:26.910 ,6,1,0.,12.0,0.,12.0,0.,12.0,0.,12.0
1979-07-19 23:54:38.910 ,6,1,0.,12.0,0.,12.0,0.,12.0,0.,12.0
1979-07-19 23:54:50.910 ,6,0,0.,12.0,0.,12.0,0.,12.0,0.,12.0
1979-07-19 23:55:02.910 ,6,0,0.,12.0,0.,12.0,0.,12.0,0.,12.0
1979-07-19 23:55:14.910 ,5,1,0.,12.0,0.,12.0,0.,12.0,0.,12.0
1979-07-19 23:55:26.910 ,5,1,0.,12.0,0.,12.0,0.,12.0,0.,12.0
1979-07-19 23:55:38.910 ,5,0,0.,12.0,0.,12.0,0.,12.0,0.,12.0
1979-07-19 23:55:50.910 ,5,0,0.,12.0,0.,12.0,0.,12.0,0.,12.0
1979-07-19 23:56:02.910 ,4,1,0.,12.0,0.,12.0,0.,12.0,0.,12.0
1979-07-19 23:56:14.910 ,4,1,0.,12.0,0.,12.0,0.,12.0,0.,12.0
1979-07-19 23:56:26.910 ,4,0,0.,12.0,0.,12.0,0.,12.0,0.,12.0
1979-07-19 23:56:38.910 ,4,0,0.,12.0,0.,12.0,0.,12.0,0.,12.0
1979-07-19 23:56:50.910 ,3,1,0.,12.0,0.,12.0,0.,12.0,0.,12.0
1979-07-19 23:57:02.910 ,3,1,0.,12.0,0.,12.0,0.,12.0,0.,12.0
1979-07-19 23:57:14.910 ,3,0,0.,12.0,0.,12.0,0.,12.0,0.,12.0
1979-07-19 23:57:26.910 ,3,0,0.,12.0,0.,12.0,0.,12.0,0.,12.0
1979-07-19 23:57:38.910 ,2,1,0.,12.0,0.,12.0,0.,12.0,0.,12.0
1979-07-19 23:57:50.910 ,2,1,0.,12.0,0.,12.0,0.,12.0,0.,12.0
1979-07-19 23:58:02.910 ,2,0,0.,12.0,0.,12.0,0.,12.0,0.,12.0
1979-07-19 23:58:14.910 ,2,0,0.,12.0,0.,12.0,0.,12.0,0.,12.0
1979-07-19 23:58:26.910 ,1,1,0.,12.0,0.,12.0,0.,12.0,0.,12.0
1979-07-19 23:58:38.910 ,1,1,0.,12.0,0.,12.0,0.,12.0,0.,12.0
1979-07-19 23:58:50.910 ,1,0,0.,12.0,0.,12.0,0.,12.0,0.,12.0
1979-07-19 23:59:02.910 ,1,0,0.,12.0,0.,12.0,0.,12.0,0.,12.0
1979-07-19 23:59:14.910 ,0,1,0.,12.0,0.,12.0,0.,12.0,0.,12.0
1979-07-19 23:59:26.910 ,0,1,0.,12.0,0.,12.0,0.,12.0,0.,12.0
1979-07-19 23:59:38.910 ,0,0,0.,12.0,0.,12.0,0.,12.0,0.,12.0
1979-07-19 23:59:50.910 ,0,0,0.,12.0,0.,12.0,0.,12.0,0.,12.0
1979-07-20 00:00:02.910 ,0,1,0.,12.0,0.,12.0,0.,12.0,0.,12.0
1979-07-20 00:00:14.910 ,0,1,0.,12.0,0.,12.0,0.,12.0,0.,12.0
